Total_Precipitation_Accumulation
1.64 1.55 1.16 0.70 0.52 0.45 0.48 0.47 0.41 0.44 0.41 0.45 0.44 0.43 0.41 0.44 0.52 0.54 0.54 0.59 0.70 0.88 1.07 1.20 1.50 1.72 1.86 2.07 2.29 2.48 2.53 2.66 2.77 2.84 2.79 2.61 2.49 2.34 2.17 1.96 1.78 1.68 1.53 1.50
1.56 1.16 0.65 0.46 0.51 0.52 0.53 0.55 0.43 0.43 0.44 0.51 0.51 0.45 0.40 0.47 0.55 0.54 0.53 0.54 0.61 0.76 0.94 1.12 1.33 1.49 1.69 1.90 2.02 2.33 2.48 2.50 2.54 2.53 2.62 2.62 2.74 2.62 2.46 2.30 2.01 1.84 1.70 1.58
1.21 0.75 0.56 0.61 0.67 0.68 0.54 0.48 0.44 0.49 0.53 0.57 0.56 0.54 0.47 0.53 0.49 0.53 0.57 0.59 0.63 0.68 0.82 0.99 1.24 1.38 1.52 1.76 1.88 2.02 2.25 2.37 2.45 2.53 2.81 2.87 2.86 2.71 2.47 2.22 2.01 1.85 1.76 1.68
1.07 0.64 0.68 0.76 0.72 0.66 0.59 0.33 0.39 0.53 0.70 0.77 0.65 0.77 0.60 0.54 0.47 0.51 0.57 0.59 0.64 0.69 0.80 0.92 1.04 1.24 1.41 1.55 1.71 1.84 2.03 2.20 2.36 2.50 2.66 2.69 2.53 2.38 2.23 2.15 2.09 1.96 1.81 1.73
1.10 0.73 0.78 0.85 0.64 0.60 0.55 0.34 0.40 0.58 0.74 0.77 0.54 0.63 0.58 0.42 0.42 0.46 0.50 0.52 0.56 0.64 0.71 0.78 0.87 1.03 1.20 1.34 1.52 1.70 1.82 1.96 2.17 2.36 2.35 2.51 2.45 2.26 2.20 2.17 2.10 1.99 1.85 1.75
0.84 0.73 0.87 0.80 0.56 0.60 0.59 0.60 0.67 0.76 1.06 1.06 0.45 0.48 0.55 0.44 0.42 0.44 0.45 0.48 0.51 0.56 0.64 0.69 0.74 0.86 1.01 1.12 1.23 1.47 1.69 1.78 1.92 2.18 2.17 2.12 2.11 2.03 2.03 2.04 2.01 1.99 1.85 1.72
1.24 1.01 0.86 0.81 0.84 0.86 0.90 1.23 1.59 1.53 1.44 0.85 0.29 0.34 0.45 0.35 0.36 0.42 0.41 0.40 0.42 0.44 0.52 0.57 0.56 0.67 0.86 1.00 1.07 1.21 1.46 1.62 1.69 1.85 1.97 2.02 1.99 1.94 1.91 1.85 1.89 1.94 1.87 1.62
1.31 1.22 0.86 0.88 0.97 1.04 0.93 1.07 1.25 1.06 0.67 0.37 0.25 0.32 0.33 0.24 0.27 0.30 0.31 0.31 0.35 0.40 0.44 0.47 0.50 0.58 0.73 0.88 0.97 1.03 1.17 1.38 1.50 1.54 1.66 1.84 1.90 1.85 1.81 1.75 1.77 1.85 1.85 1.74
0.94 0.96 0.61 0.63 0.65 0.74 0.94 0.92 0.74 0.93 0.63 0.41 0.30 0.28 0.26 0.18 0.21 0.23 0.25 0.26 0.30 0.36 0.39 0.44 0.47 0.53 0.60 0.70 0.83 0.89 0.93 1.12 1.27 1.33 1.44 1.57 1.60 1.57 1.54 1.52 1.55 1.60 1.67 1.65
0.84 0.97 0.63 0.61 0.81 0.80 0.80 0.78 0.94 1.38 1.08 0.61 0.31 0.24 0.31 0.23 0.22 0.21 0.23 0.27 0.31 0.33 0.34 0.39 0.46 0.50 0.53 0.58 0.66 0.73 0.82 0.96 1.09 1.17 1.25 1.28 1.30 1.35 1.31 1.27 1.29 1.33 1.37 1.39
0.77 1.05 0.84 0.82 1.01 0.81 0.78 0.91 1.05 1.09 0.88 0.77 0.45 0.32 0.29 0.26 0.22 0.21 0.23 0.27 0.30 0.31 0.33 0.36 0.41 0.48 0.53 0.61 0.64 0.67 0.72 0.80 0.94 1.02 1.02 0.97 0.99 1.10 1.15 1.14 1.11 1.11 1.18 1.26
0.69 1.07 0.89 0.65 0.57 0.49 0.63 0.69 0.83 1.16 0.84 0.61 0.53 0.37 0.22 0.21 0.24 0.25 0.26 0.29 0.28 0.27 0.29 0.34 0.38 0.45 0.49 0.56 0.63 0.68 0.68 0.72 0.81 0.87 0.90 0.87 0.83 0.91 0.97 0.91 0.90 0.95 0.97 1.04
0.83 1.28 1.20 0.87 0.80 0.73 0.76 0.60 0.64 0.96 1.19 0.88 0.70 0.42 0.20 0.16 0.21 0.25 0.28 0.30 0.26 0.25 0.26 0.28 0.32 0.40 0.46 0.52 0.57 0.60 0.62 0.65 0.72 0.74 0.80 0.85 0.84 0.89 0.96 0.88 0.78 0.78 0.79 0.81
1.07 1.29 1.12 0.97 0.80 0.78 0.76 0.57 0.62 1.22 1.54 0.84 0.47 0.34 0.24 0.21 0.23 0.27 0.30 0.32 0.27 0.26 0.29 0.30 0.32 0.37 0.43 0.47 0.52 0.54 0.57 0.61 0.64 0.65 0.70 0.76 0.79 0.83 0.93 0.92 0.79 0.75 0.73 0.73
0.99 1.21 0.79 0.53 0.44 0.56 0.60 0.54 0.63 0.95 0.91 0.80 0.43 0.33 0.35 0.32 0.32 0.31 0.30 0.28 0.26 0.25 0.29 0.31 0.34 0.38 0.39 0.40 0.43 0.45 0.47 0.51 0.55 0.57 0.60 0.70 0.73 0.75 0.84 0.90 0.88 0.87 0.84 0.79
0.70 0.98 0.78 0.56 0.37 0.46 0.53 0.48 0.53 0.60 0.56 0.55 0.45 0.43 0.32 0.29 0.27 0.29 0.29 0.28 0.29 0.26 0.27 0.28 0.32 0.35 0.35 0.38 0.41 0.43 0.45 0.47 0.51 0.55 0.56 0.59 0.62 0.65 0.71 0.79 0.80 0.84 0.91 0.91
0.50 0.75 0.96 0.72 0.42 0.57 0.72 0.59 0.55 0.52 0.43 0.43 0.48 0.39 0.26 0.27 0.27 0.27 0.24 0.22 0.24 0.24 0.23 0.24 0.27 0.31 0.34 0.34 0.36 0.39 0.44 0.48 0.51 0.56 0.58 0.58 0.59 0.60 0.60 0.65 0.73 0.83 0.91 0.96
0.35 0.58 0.98 0.79 0.62 0.82 0.66 0.46 0.43 0.43 0.40 0.37 0.35 0.26 0.24 0.27 0.28 0.26 0.22 0.19 0.17 0.18 0.18 0.19 0.22 0.25 0.32 0.32 0.31 0.33 0.33 0.37 0.43 0.48 0.49 0.52 0.58 0.63 0.63 0.69 0.82 0.94 1.01 1.08
0.21 0.53 0.97 0.86 0.66 0.44 0.28 0.23 0.30 0.38 0.40 0.31 0.27 0.22 0.20 0.22 0.25 0.27 0.25 0.22 0.19 0.16 0.16 0.16 0.17 0.19 0.24 0.28 0.28 0.29 0.31 0.34 0.37 0.43 0.45 0.48 0.54 0.67 0.78 0.88 1.00 1.09 1.18 1.23
0.23 0.47 0.97 0.89 0.77 0.45 0.25 0.12 0.15 0.28 0.43 0.23 0.20 0.22 0.22 0.22 0.29 0.26 0.21 0.19 0.18 0.16 0.15 0.15 0.15 0.16 0.19 0.22 0.25 0.27 0.31 0.38 0.44 0.51 0.56 0.60 0.66 0.79 0.91 0.99 1.05 1.06 1.08 1.11
0.44 0.66 0.87 0.76 0.74 0.40 0.20 0.10 0.12 0.41 0.50 0.20 0.16 0.21 0.24 0.29 0.31 0.23 0.17 0.17 0.16 0.16 0.16 0.18 0.22 0.25 0.25 0.26 0.31 0.38 0.42 0.52 0.59 0.63 0.70 0.76 0.74 0.75 0.78 0.81 0.81 0.75 0.70 0.69
0.40 0.53 0.55 0.57 0.76 0.54 0.23 0.17 0.32 0.45 0.27 0.20 0.17 0.19 0.23 0.25 0.23 0.21 0.19 0.17 0.16 0.15 0.16 0.19 0.28 0.36 0.38 0.40 0.48 0.56 0.60 0.63 0.65 0.68 0.71 0.73 0.72 0.69 0.65 0.60 0.55 0.47 0.41 0.39
0.39 0.51 0.56 0.57 0.62 0.49 0.31 0.30 0.31 0.26 0.24 0.22 0.22 0.22 0.22 0.23 0.23 0.22 0.23 0.19 0.16 0.14 0.14 0.17 0.23 0.28 0.33 0.36 0.41 0.48 0.50 0.50 0.51 0.56 0.58 0.59 0.57 0.52 0.48 0.43 0.39 0.36 0.33 0.31
0.36 0.30 0.39 0.44 0.41 0.32 0.26 0.21 0.20 0.21 0.24 0.24 0.23 0.22 0.20 0.21 0.21 0.20 0.19 0.20 0.19 0.18 0.16 0.15 0.16 0.17 0.19 0.20 0.25 0.28 0.27 0.28 0.30 0.33 0.38 0.41 0.42 0.40 0.36 0.32 0.31 0.31 0.30 0.29
0.35 0.32 0.37 0.41 0.33 0.25 0.23 0.21 0.21 0.19 0.18 0.18 0.19 0.20 0.22 0.21 0.21 0.20 0.19 0.19 0.19 0.20 0.19 0.19 0.18 0.19 0.20 0.19 0.19 0.20 0.20 0.21 0.22 0.23 0.24 0.27 0.29 0.31 0.31 0.30 0.29 0.31 0.31 0.32
0.31 0.38 0.48 0.48 0.32 0.31 0.29 0.21 0.17 0.16 0.16 0.15 0.14 0.16 0.18 0.18 0.21 0.21 0.21 0.21 0.21 0.21 0.20 0.19 0.19 0.20 0.20 0.20 0.19 0.19 0.19 0.20 0.23 0.24 0.23 0.22 0.24 0.27 0.29 0.30 0.31 0.34 0.35 0.37